Location: Treviso
(45.6669°N, 12.2430°E)
Time: 11:04:44
(UTC+01:00)

ISS - Pass Details

Date: 20 March 2023
Orbit: 414 x 423 km, 51.6° (Epoch: 20 March)

Event Time Altitude Azimuth Distance (km) Brightness Sun altitude
Rises 20:14:06 0° 269° (W) 2,355 1.3 -19.8°
Reaches altitude 10° 20:16:19 10° 279° (W) 1,492 0.2 -20.1°
Maximum altitude 20:19:25 35° 347° (NNW) 700 -2.4 -20.6°
Enters shadow 20:20:08 31° 15° (NNE) 761 -2.4 -20.7°
